Hourly Weather Roundup
Issued by NWS Central Illinois

Home | Current Version | Previous Version | Text Only | Print | Product List | Glossary On
Versions: 1 2 3 4 5 6 7 8 9 10 11 12 13 14 15 16 17 18 19 20 21 22 23 24 25 26 27 28 29 30 31 32 33 34 35 36 37 38 39 40 41 42 43 44 45 46 47 48 49 50
925
NZUS43 KILX 060410
HWRILX

AREA WEATHER ROUNDUP
NATIONAL WEATHER SERVICE, LINCOLN IL
1000 PM CST MON DEC 05 2016


CITY           SKY/WX    TMP DP  RH WIND       PRES   REMARKS
BLOOMINGTON    FOG       28  27  93 NE8       29.90F VSB 1/2 WCI  20
CHAMPAIGN      PTCLDY    35  31  85 E10       29.89F WCI  27
DANVILLE       PTCLDY    33  32  96 E5        29.88F WCI  28
DECATUR        PTCLDY    32  30  92 E5        29.89S WCI  27
EFFINGHAM      PTCLDY    37  36  96 E5        29.89R WCI  33
FLORA          CLOUDY    37  35  90 NE5       29.86S WCI  34
GALESBURG      CLOUDY    35  33  94 E9        29.86S WCI  27
JACKSONVILLE   MOCLDY    33  32  98 E9        29.85F FOG     WCI  25
LACON          FOG       32  32 100 E6        29.91R VSB 1   WCI  27
LAWRENCEVILLE  CLOUDY    38  34  85 E7        29.87F WCI  33
LITCHFIELD     PTCLDY    33  32  96 E5        29.85F FOG     WCI  29
$$


CITY           SKY/WX    TMP DP  RH WIND       PRES   REMARKS
LINCOLN        CLEAR     32  32 100 E3        29.88F FOG
MACOMB         CLOUDY    36  35  96 SE12      29.88S WCI  28
MATTOON        PTCLDY    35  31  85 E5        29.87F WCI  31
MT CARMEL AP   CLOUDY    39  35  84 E9        29.85F WCI  33
OLNEY-NOBLE AP CLOUDY    36  36 100 E3        29.87R
PARIS          PTCLDY    34  33  94 E7        29.89F WCI  28
PEORIA         PTCLDY    34  34 100 E7        29.89F WCI  28
PONTIAC        FOG       32  32 100 E9        29.92S VSB 1/2 WCI  24
RANTOUL        PTCLDY    34  33  96 E7        29.90F WCI  28
SPRINGFIELD    CLEAR     32  30  92 E6        29.87F FOG     WCI  26
TAYLORVILLE    CLOUDY    33  33  96 E5        29.87S FOG     WCI  29
$$

...REGIONAL REPORTS...


CITY           SKY/WX    TMP DP  RH WIND       PRES   REMARKS
CHICAGO O`HARE CLOUDY    32  30  92 SE8       29.95F FOG     WCI  25
KANKAKEE       CLOUDY    30  29  96 CALM      29.93F FOG
MOLINE         CLOUDY    34  30  85 SE13      29.87F WCI  25
MOUNT STERLING CLOUDY    33  33  99 E12       29.83F FOG     WCI  25
MOUNT VERNON   NOT AVBL
PITTSFIELD     CLOUDY    36  35  96 SE14      29.84F WCI  27
QUINCY         MOCLDY    35  34  96 SE12      29.82F FOG     WCI  27
ROCKFORD       CLOUDY    31  29  92 SE13      29.93F FOG     WCI  21
$$


CITY           SKY/WX    TMP DP  RH WIND       PRES   REMARKS
BURLINGTON     CLOUDY    35  34  96 SE7G18    29.86R WCI  29
CEDAR RAPIDS   CLOUDY    33  33 100 SE15      29.81F WCI  23
DES MOINES     CLOUDY    39  36  89 SE13      29.78R WCI  31
KIRKSVILLE     FOG       35  35 100 SE10      29.80F VSB 1/4 WCI  27
OTTUMWA        CLOUDY    38  35  89 S12       29.80S WCI  30
ST LOUIS       MOCLDY    39  33  79 E9        29.84F WCI  33
$$


CITY           SKY/WX    TMP DP  RH WIND       PRES   REMARKS
TERRE HAUTE    CLEAR     33  29  85 E6        29.89F WCI  28
EVANSVILLE     CLOUDY    42  35  76 E7        29.83F
INDIANAPOLIS   MOCLDY    36  31  82 E13       29.91F WCI  27
LAFAYETTE      PTCLDY    32  31  96 E8        29.92F WCI  25
MADISON        CLOUDY    31  30  96 S9        29.89S WCI  23
MILWAUKEE      CLOUDY    36  33  89 S9        29.93F FOG     WCI  29
$$






USA.gov is the U.S. government's official web portal to all federal, state and local government web resources and services.